{"data":{"norad_id":67846,"intl_designator":"2026-033AB","name":"STARLINK-36658","alt_names":[],"object_type":"PAYLOAD","status":"ACTIVE","operator":null,"country":"US","launch_date":"2026-02-16","launch_site_code":"AFETR","launch_vehicle":null,"mission":null,"orbit_class":"UNKNOWN","rcs_meters":null,"size_class":null,"mass_kg":null,"dimensions":null,"purposes":["comms"],"wikipedia_slug":null,"has_3d_model":false,"image_url":null,"decayed_at":null,"tle_current":{"epoch":"2026-09-19T23:18:58.988448Z","epoch_age_seconds":112162,"freshness":"FRESH","line1":"1 67846U 26033AB  26262.97151607  .00008278  00000+0  30996-3 0  9993","line2":"2 67846  43.0005 250.1341 0001518 268.9267  91.1411 15.27585723 34386","mean_motion":15.27585723,"eccentricity":0.0001518,"inclination_deg":43.0005,"raan_deg":250.1341,"arg_perigee_deg":268.9267,"mean_anomaly_deg":91.1411,"bstar":0.00030996,"rev_number":3438,"period_min":94.266395549443,"perigee_km":481.99043392428,"apogee_km":484.07348482035,"semimajor_km":6861.1689593723,"source":"CELESTRAK","updated_at":"2026-09-20T09:00:43.672393Z"}}}